This demonstration page uses our WeatherBlox Daily Observations layout. Learn more.

Left ArrowRight Arrow

44.8408, -93.29828

Hourly Observations for December 12, 2019

Temp ( °F °C ) Dew Point ( °F °C ) Humidity (%) Winds ( mph kmh ) Pressure ( in mb ) Visibility ( mi km ) Precip ( " mm )
12:53 am 00:53 Cloudy 9 -12.8 -1 -18.3 64 64 E 8 13 30.36 1028 10 16 0.00 0.00
1:53 am 01:53 Cloudy 10 -12.2 -1 -18.3 61 61 E 10 17 30.33 1027 10 16 0.00 0.00
2:53 am 02:53 Cloudy 11 -11.7 1 -17.2 64 64 E 10 17 30.28 1025 10 16 0.00 0.00
3:53 am 03:53 Cloudy 12 -11.1 2 -16.7 64 64 E 10 17 30.23 1024 10 16 0.00 0.00
4:53 am 04:53 Cloudy 14 -10 3 -16.1 61 61 E 13 20 30.19 1023 10 16 0.00 0.00
5:53 am 05:53 Cloudy 15 -9.4 5 -15 64 64 E 10 17 30.16 1021 10 16 0.00 0.00
6:35 am 06:35 Cloudy 15 -9.4 6 -14.4 67 67 E 12 19 30.16 1021 7 11 0.00 0.00
6:53 am 06:53 Cloudy with Light Snow 14 -10 7 -13.9 73 73 E 12 19 30.13 1020 4 6 0.00 0.00
7:04 am 07:04 Cloudy with Light Snow 14 -10 8 -13.3 77 77 E 12 19 30.15 1021 1 2 0.00 0.00
7:12 am 07:12 Cloudy with Light Snow 14 -10 9 -12.8 80 80 E 9 15 30.15 1021 1 2 0.01 0.25
7:34 am 07:34 Cloudy with Light Snow 14 -10 9 -12.8 80 80 NE 8 13 30.15 1021 2 2 0.02 0.51
7:41 am 07:41 Cloudy with Light Snow 14 -10 9 -12.8 80 80 NE 10 17 30.14 1021 1 2 0.03 0.76
7:51 am 07:51 Cloudy with Light Snow 14 -10 9 -13 79 79 NE 9 15 30.15 1021 2 2 0.03 0.76
7:53 am 07:53 Cloudy with Light Snow 14 -10 9 -12.8 80 80 NE 9 15 30.12 1020 2 2 0.03 0.76
8:03 am 08:03 Cloudy with Light Snow 14 -10 9 -12.8 80 80 ENE 9 15 30.14 1021 2 3 0.00 0.00
8:07 am 08:07 Cloudy with Light Snow 14 -10 9 -12.8 80 80 ENE 10 17 30.14 1021 3 5 0.00 0.00
8:14 am 08:14 Cloudy with Light Snow 14 -10 9 -12.8 80 80 ENE 9 15 30.14 1021 2 3 0.01 0.25
8:30 am 08:30 Cloudy with Light Snow 14 -10 9 -12.8 80 80 ENE 9 15 30.14 1021 2 3 0.01 0.25
8:41 am 08:41 Cloudy with Light Snow 14 -10 9 -12.8 80 80 ENE 10 17 30.14 1021 2 2 0.01 0.25
8:53 am 08:53 Cloudy with Light Snow 14 -10 9 -12.8 80 80 ENE 10 17 30.11 1020 2 3 0.02 0.51
9:13 am 09:13 Cloudy with Light Snow 15 -9.4 10 -12.2 80 80 ENE 8 13 30.13 1020 2 2 0.00 0.00
9:35 am 09:35 Mostly Cloudy with Light Snow 16 -8.9 10 -12.2 77 77 ENE 10 17 30.12 1020 1 2 0.01 0.25
9:53 am 09:53 Mostly Cloudy with Light Snow 16 -8.9 11 -11.7 80 80 ENE 7 11 30.09 1019 1 2 0.02 0.51
10:24 am 10:24 Cloudy with Light Snow 16 -8.9 11 -11.7 80 80 ENE 8 13 30.11 1020 2 2 0.02 0.51
10:53 am 10:53 Cloudy with Light Snow 16 -8.9 11 -11.7 80 80 NE 8 13 30.08 1019 2 2 0.03 0.76
11:05 am 11:05 Cloudy with Light Snow 16 -8.9 11 -11.7 80 80 NE 7 11 30.11 1020 1 2 0.00 0.00
11:13 am 11:13 Mostly Cloudy with Light Snow 17 -8.3 12 -11.1 80 80 NNE 8 13 30.11 1020 1 1 0.01 0.25
11:26 am 11:26 Cloudy with Light Snow 17 -8.3 12 -11.1 80 80 NNE 7 11 30.10 1019 2 3 0.02 0.51
11:53 am 11:53 Cloudy with Light Snow 18 -7.8 12 -11.1 77 77 NNE 8 13 30.06 1018 2 3 0.02 0.51
11:57 am 11:57 Cloudy with Light Snow 18 -7.8 12 -11.1 77 77 NNE 9 15 30.08 1019 5 8 0.00 0.00
12:53 pm 12:53 Cloudy 18 -7.8 11 -11.7 74 74 N 8 13 30.06 1018 9 14 0.00 0.00
1:53 pm 13:53 Cloudy 18 -7.8 11 -11.7 74 74 NNW 8 13 30.06 1018 10 16 0.00 0.00
1:57 pm 13:57 Cloudy 18 -7.8 11 -11.7 74 74 N 7 11 30.08 1019 10 16 0.00 0.00
2:05 pm 14:05 Cloudy 18 -7.8 11 -11.7 74 74 N 7 11 30.07 1018 10 16 0.00 0.00
2:16 pm 14:16 Cloudy 18 -7.8 11 -11.7 74 74 N 6 9 30.08 1019 10 16 0.00 0.00
2:27 pm 14:27 Cloudy 18 -7.8 11 -11.7 74 74 N 8 13 30.08 1019 10 16 0.00 0.00
2:53 pm 14:53 Cloudy 18 -7.8 11 -11.7 74 74 N 7 11 30.06 1018 10 16 0.00 0.00
3:53 pm 15:53 Cloudy 18 -7.8 11 -11.7 74 74 NNE 7 11 30.07 1018 10 16 0.00 0.00
4:53 pm 16:53 Cloudy 19 -7.2 11 -11.7 71 71 N 8 13 30.08 1019 10 16 0.00 0.00
5:05 pm 17:05 Cloudy 18 -7.8 11 -11.7 74 74 N 7 11 30.11 1020 10 16 0.00 0.00
5:53 pm 17:53 Cloudy 18 -7.8 11 -11.7 74 74 NNW 8 13 30.11 1020 10 16 0.00 0.00
6:53 pm 18:53 Cloudy 18 -7.8 11 -11.7 74 74 N 5 7 30.11 1020 9 14 0.00 0.00
7:21 pm 19:21 Cloudy 18 -7.8 10 -12.2 71 71 NNW 6 9 30.14 1021 9 14 0.00 0.00
7:35 pm 19:35 Cloudy 18 -7.8 10 -12.2 71 71 NNW 5 7 30.13 1020 9 14 0.00 0.00
7:53 pm 19:53 Cloudy 18 -7.8 10 -12.2 71 71 NNW 5 7 30.11 1020 10 16 0.00 0.00
8:12 pm 20:12 Cloudy 18 -7.8 10 -12.2 71 71 Calm 30.13 1020 9 14 0.00 0.00
8:53 pm 20:53 Cloudy 18 -7.8 10 -12.2 71 71 Calm 30.10 1019 9 14 0.00 0.00
9:53 pm 21:53 Cloudy 17 -8.3 11 -11.7 77 77 WNW 5 7 30.09 1019 10 16 0.00 0.00
10:03 pm 22:03 Cloudy 18 -7.8 11 -11.7 74 74 NW 5 7 30.11 1020 9 14 0.00 0.00
10:53 pm 22:53 Cloudy 18 -7.8 11 -11.7 74 74 NW 3 6 30.08 1019 9 14 0.00 0.00
11:53 pm 23:53 Cloudy 17 -8.3 10 -12.2 74 74 WNW 5 7 30.07 1018 9 14 0.00 0.00

Powered by AerisWeather